A/2019 G4

Japanese version
Home page
Updated on February 19, 2020

---------------------------------------------------------------------

* Profile

Discovery Date April 9, 2019
Magnitude 21.4 mag
Discoverer Pan-STARRS 1 telescope (Haleakala)

* Orbital Elements

Epoch 2018 Aug. 30.0 TT = JDT 2458360.5
T 2018 Sept. 15.17367 TT                                Bell
q   5.8580655            (2000.0)            P               Q
z  +0.0000612      Peri.  287.83580     -0.74011238     -0.44376495
 +/-0.0000052      Node   130.47574     +0.04149143     +0.71979746
e   0.9996413      Incl.  138.37557     -0.67120200     +0.53382046
H   13.0
From 24 observations 2019 Apr. 9-2020 Jan. 30, mean residual 0".3.

* Magnitudes Graph

        H = 13.0  G = 0.15

---------------------------------------------------------------------

The orbital elements are published on M.P.E.C. 2020-C98.
The magnitudes graphs are made with Comet for Windows.

---------------------------------------------------------------------

Copyright(C) Seiichi Yoshida (comet@aerith.net). All rights reserved.